Location: Heilbronn
(49.1548°N, 9.2780°E)
Time: 19:39:34
(UTC+01:00)

ISS - Pass Details

Date: 12 November 2017
Orbit: 401 x 407 km, 51.6° (Epoch: 25 November)

Event Time Altitude Azimuth Distance (km) Brightness Sun altitude
Exits shadow 05:52:57 38° 291° (WNW) 629 -3.4 -15.6°
Maximum altitude 05:54:04 88° 17° (NNE) 407 -3.9 -15.4°
Drops below altitude 10° 05:57:20 10° 109° (ESE) 1,453 0.3 -14.9°
Sets 05:59:24 0° 110° (ESE) 2,310 1.8 -14.6°
